Temp
2 3 4 5 7 8 11 12 11 10 10 11 11 11 12 13 12 11 11 12 11 11 11 11 11 10 10 11 10 10 9 9 9 9 9 9 9 9
1 2 4 6 7 9 11 12 12 11 10 11 11 11 12 12 12 12 12 11 11 11 12 11 11 10 10 10 10 10 10 9 9 9 9 9 9 9
-0 1 4 7 7 8 10 11 12 12 11 11 12 12 11 11 11 12 12 12 12 12 12 11 11 11 10 10 10 10 10 9 9 9 9 8 8 9
-2 -1 3 7 8 8 10 11 13 12 12 10 10 10 10 11 11 11 11 12 12 12 12 12 12 12 11 11 11 10 10 10 9 9 8 8 8 8
-3 -2 -0 4 7 9 10 10 12 12 11 10 10 10 11 11 10 11 11 11 11 11 11 10 11 11 11 11 11 10 10 10 10 9 9 9 8 8
-4 -4 -2 -2 3 7 9 9 9 9 10 10 10 10 10 10 9 10 10 11 11 11 11 11 10 10 11 11 10 10 10 10 10 10 9 9 8 8
-5 -5 -4 -4 -1 1 6 9 9 9 9 9 9 9 9 10 9 10 10 11 11 11 11 11 11 11 10 10 11 10 10 10 10 10 10 9 9 9
-6 -5 -6 -3 -1 -0 0 7 7 9 9 9 9 9 9 9 9 9 10 10 9 10 10 11 11 11 10 10 10 11 11 10 10 10 10 9 9 9
-7 -7 -6 -6 -3 -2 -1 3 3 7 7 8 8 8 9 9 9 8 9 9 9 10 9 9 10 9 10 10 10 9 10 10 10 10 10 10 9 9
-8 -8 -8 -7 -6 -5 -1 -0 -0 0 2 3 6 7 8 8 8 8 8 8 8 9 8 9 9 9 9 10 10 10 9 10 10 10 10 10 9 9
-8 -8 -8 -8 -7 -7 -2 -2 -3 -0 -0 -1 4 6 7 7 7 7 7 6 7 8 8 8 8 9 9 10 9 9 9 9 9 10 10 9 10 10
-8 -9 -9 -9 -8 -7 -6 -4 -2 -2 -3 -0 3 2 4 4 4 5 5 5 6 6 7 7 8 8 8 9 9 9 9 9 9 9 9 9 9 9
-9 -9 -9 -9 -9 -8 -7 -6 -6 -2 -2 -1 -1 1 2 3 3 3 2 4 5 5 6 6 6 7 7 8 8 9 9 9 9 8 9 9 9 9
-9 -10 -10 -10 -9 -8 -8 -7 -7 -5 -5 -3 -2 -0 1 1 1 1 1 1 3 4 4 5 5 5 7 6 7 8 8 8 8 8 9 9 8 8
-11 -11 -10 -10 -9 -9 -10 -9 -8 -8 -7 -5 -3 -3 -2 -1 -1 -0 -0 1 1 2 3 4 4 5 5 6 6 6 7 7 7 7 8 8 8 7
-11 -10 -10 -10 -10 -11 -10 -9 -10 -9 -8 -7 -6 -6 -5 -3 -3 -2 -1 -0 1 1 2 3 3 4 5 4 5 5 6 5 6 7 7 7 7 7
-11 -10 -10 -10 -10 -10 -10 -10 -10 -10 -9 -9 -8 -7 -6 -5 -4 -4 -3 -2 -2 -1 0 1 2 3 4 4 3 4 4 5 5 5 5 5 6 6
-11 -11 -12 -12 -13 -12 -12 -11 -11 -11 -11 -10 -10 -9 -8 -7 -6 -5 -4 -5 -3 -2 -1 -0 1 1 1 2 3 4 4 4 5 4 3 4 4 4
-13 -13 -13 -13 -13 -13 -13 -13 -12 -12 -11 -11 -11 -11 -11 -10 -8 -7 -6 -6 -5 -4 -3 -1 -1 -1 -1 -1 1 2 3 3 4 3 3 2 3 3
-14 -14 -14 -14 -14 -14 -13 -13 -12 -12 -12 -12 -12 -11 -11 -11 -9 -9 -8 -8 -7 -5 -3 -2 -2 -1 -2 -2 -1 0 1 1 2 1 1 0 -1 -2
-14 -15 -15 -15 -14 -14 -14 -13 -13 -13 -13 -12 -12 -12 -11 -11 -11 -10 -10 -9 -8 -7 -6 -3 -3 -3 -3 -3 -3 -2 -1 -1 -0 -0 -0 -1 -3 -3
-15 -15 -15 -15 -15 -14 -14 -14 -13 -13 -13 -12 -12 -12 -11 -11 -11 -10 -10 -10 -9 -8 -7 -6 -5 -4 -4 -4 -4 -3 -3 -2 -3 -3 -4 -3 -3 -4
-16 -16 -16 -16 -15 -15 -14 -14 -13 -13 -13 -12 -12 -12 -12 -11 -11 -10 -10 -10 -10 -9 -8 -7 -6 -6 -5 -5 -5 -4 -4 -4 -4 -5 -5 -5 -5 -4
Height
1387 1381 1378 1374 1375 1379 1384 1383 1386 1388 1379 1389 1400 1406 1406 1408 1410 1414 1420 1426 1433 1438 1443 1448 1451 1455 1459 1464 1468 1472 1476 1480 1485 1489 1492 1496 1500 1504
1375 1368 1364 1361 1360 1365 1366 1369 1370 1370 1374 1379 1389 1395 1399 1402 1405 1407 1412 1418 1421 1426 1431 1435 1441 1444 1448 1453 1458 1462 1466 1471 1475 1480 1484 1487 1491 1495
1366 1358 1351 1351 1349 1352 1352 1355 1358 1363 1367 1373 1378 1384 1389 1394 1398 1399 1402 1408 1411 1414 1419 1423 1428 1433 1438 1442 1447 1452 1457 1461 1465 1470 1475 1479 1482 1486
1358 1350 1340 1337 1336 1339 1342 1345 1348 1354 1360 1367 1372 1377 1380 1384 1389 1392 1396 1398 1401 1404 1407 1412 1416 1421 1427 1432 1436 1441 1446 1451 1455 1459 1466 1469 1473 1477
1355 1347 1334 1328 1326 1330 1331 1335 1339 1345 1350 1357 1360 1370 1372 1375 1381 1385 1387 1390 1393 1398 1401 1404 1408 1412 1417 1420 1424 1430 1435 1440 1444 1449 1455 1460 1464 1468
1351 1344 1336 1327 1318 1318 1318 1325 1331 1335 1340 1347 1353 1360 1363 1368 1373 1377 1380 1382 1386 1389 1392 1396 1398 1403 1406 1410 1414 1418 1424 1429 1434 1439 1446 1450 1455 1459
1349 1343 1334 1331 1319 1313 1314 1315 1323 1330 1335 1339 1346 1350 1355 1358 1362 1369 1371 1374 1377 1381 1383 1386 1390 1393 1397 1401 1403 1407 1413 1418 1423 1429 1434 1439 1444 1449
1347 1341 1335 1324 1319 1313 1313 1311 1318 1323 1330 1335 1338 1342 1348 1351 1355 1361 1362 1365 1369 1372 1374 1377 1380 1381 1386 1391 1395 1398 1403 1407 1412 1417 1422 1427 1432 1437
1349 1341 1334 1326 1317 1313 1312 1309 1314 1320 1324 1326 1333 1334 1339 1340 1347 1350 1352 1357 1362 1365 1367 1369 1371 1372 1377 1382 1386 1389 1393 1396 1396 1405 1410 1415 1420 1425
1349 1344 1336 1328 1322 1318 1315 1315 1316 1319 1320 1324 1322 1323 1331 1336 1341 1344 1347 1352 1355 1358 1359 1363 1362 1365 1368 1372 1375 1378 1382 1386 1389 1393 1397 1402 1407 1412
1350 1344 1337 1334 1328 1323 1316 1319 1318 1314 1314 1314 1313 1320 1326 1331 1335 1337 1342 1346 1348 1349 1353 1355 1357 1358 1360 1363 1367 1369 1371 1374 1378 1381 1385 1384 1392 1399
1348 1345 1342 1336 1331 1323 1320 1317 1310 1325 1323 1317 1313 1320 1321 1325 1327 1331 1337 1339 1341 1342 1345 1350 1351 1353 1353 1354 1358 1361 1362 1365 1368 1371 1373 1378 1382 1386
1347 1342 1339 1335 1331 1325 1324 1322 1320 1317 1316 1317 1321 1317 1316 1319 1321 1326 1331 1333 1334 1335 1341 1343 1344 1346 1347 1349 1351 1353 1355 1358 1360 1362 1365 1367 1369 1373
1351 1346 1342 1335 1330 1325 1319 1320 1322 1313 1319 1318 1316 1313 1313 1315 1318 1324 1325 1326 1327 1328 1333 1334 1337 1340 1341 1342 1346 1346 1348 1350 1352 1352 1355 1358 1360 1362
1356 1352 1344 1338 1333 1332 1332 1329 1323 1322 1318 1315 1312 1312 1313 1314 1317 1319 1320 1318 1320 1321 1324 1327 1330 1332 1334 1336 1338 1340 1341 1343 1345 1346 1348 1350 1352 1353
1356 1351 1346 1343 1340 1338 1332 1327 1323 1316 1311 1310 1312 1312 1311 1311 1313 1314 1312 1313 1314 1314 1317 1321 1321 1324 1326 1328 1330 1332 1335 1337 1338 1339 1341 1341 1344 1345
1359 1352 1346 1343 1341 1335 1329 1324 1320 1319 1318 1314 1313 1310 1308 1311 1309 1309 1308 1308 1308 1309 1312 1313 1314 1317 1319 1321 1321 1324 1327 1329 1332 1333 1334 1335 1337 1339
1361 1355 1350 1345 1340 1333 1329 1326 1324 1319 1314 1312 1310 1308 1307 1306 1305 1305 1303 1303 1304 1305 1307 1307 1307 1310 1312 1313 1315 1318 1320 1321 1323 1325 1327 1328 1330 1332
1364 1358 1353 1347 1340 1335 1331 1327 1322 1320 1317 1315 1313 1312 1311 1312 1306 1302 1301 1301 1302 1301 1301 1301 1301 1303 1306 1307 1310 1311 1313 1315 1317 1318 1320 1321 1324 1326
1366 1362 1357 1352 1346 1342 1338 1334 1331 1327 1323 1321 1319 1317 1315 1308 1303 1302 1301 1299 1297 1295 1295 1295 1295 1298 1301 1303 1304 1305 1306 1309 1311 1313 1315 1318 1320 1323
1367 1363 1359 1354 1350 1346 1342 1338 1332 1328 1326 1324 1320 1315 1311 1305 1303 1301 1298 1295 1292 1290 1290 1290 1290 1292 1294 1296 1297 1300 1302 1303 1305 1307 1309 1314 1317 1319
1369 1365 1361 1357 1354 1350 1345 1340 1336 1332 1327 1322 1316 1312 1308 1305 1300 1297 1293 1290 1288 1287 1287 1285 1285 1286 1287 1290 1293 1295 1297 1298 1301 1303 1306 1310 1314 1314
1370 1366 1362 1357 1352 1348 1343 1339 1333 1328 1324 1319 1314 1310 1305 1301 1297 1294 1290 1288 1285 1283 1282 1281 1281 1281 1283 1285 1288 1290 1292 1294 1296 1299 1303 1306 1312 1315
Wind_Speed
36 40 42 44 43 45 50 42 33 23 28 32 34 32 29 36 36 39 40 43 42 45 47 47 48 48 45 43 40 39 38 36 34 34 35 36 38 38
34 38 39 39 44 44 50 42 38 35 24 30 25 40 40 40 33 35 45 42 40 39 41 44 47 50 48 46 43 41 42 41 39 37 34 36 37 39
29 35 38 37 40 42 46 44 39 38 38 31 33 31 34 35 34 34 38 42 39 39 41 42 42 48 49 47 45 43 43 44 44 40 37 35 36 38
26 32 27 35 39 43 43 47 42 40 42 37 30 28 29 28 27 27 27 31 32 27 35 35 35 40 43 47 46 45 44 45 43 45 40 38 37 37
23 26 22 20 30 39 39 44 43 41 41 36 35 33 31 26 29 30 27 27 24 24 23 26 28 37 35 39 48 47 44 43 48 47 40 40 39 38
22 19 24 20 10 25 29 33 32 33 33 34 32 32 32 32 30 32 32 31 32 31 28 28 29 34 35 33 40 47 46 45 46 47 43 41 41 40
22 18 17 22 14 4 23 30 32 31 33 31 28 31 32 30 33 34 34 30 30 33 32 31 33 37 38 41 32 42 45 44 44 46 48 45 42 42
26 23 20 19 19 11 4 27 22 28 29 31 34 34 29 28 29 31 30 30 27 27 34 30 32 39 38 38 37 39 44 47 47 45 49 49 47 45
24 24 25 23 20 17 8 11 14 28 30 28 37 34 27 24 26 21 17 19 26 24 20 22 26 30 35 36 34 36 41 37 43 45 46 48 51 50
21 22 25 25 24 20 12 5 2 7 10 14 17 20 20 19 21 20 23 24 27 25 21 24 24 23 20 23 29 38 42 41 39 43 46 50 50 51
19 19 23 23 20 21 14 11 6 3 6 7 12 19 24 26 26 22 22 21 24 25 22 22 29 32 28 29 26 25 28 34 41 42 41 42 43 49
21 18 20 24 21 19 17 15 14 8 12 6 6 11 15 17 20 24 26 24 23 22 27 26 26 22 26 28 28 25 26 27 30 35 40 39 42 42
25 24 23 24 23 20 17 13 14 14 11 8 8 7 9 11 13 17 21 23 27 27 26 15 19 23 25 25 20 18 19 24 31 28 25 34 42 39
24 23 23 22 20 20 20 16 12 12 10 8 6 4 5 8 11 15 18 22 23 26 28 26 29 27 26 24 24 24 21 22 25 27 32 30 32 36
20 18 18 19 18 15 13 12 11 13 12 11 10 8 6 7 11 13 15 17 22 24 25 27 28 29 27 30 24 25 21 22 23 26 28 28 30 36
24 21 19 16 15 16 16 16 17 18 19 18 16 13 11 8 9 11 12 14 15 16 22 24 24 27 30 31 31 30 28 24 21 20 21 22 23 25
24 24 25 25 23 23 23 23 22 20 18 18 18 16 14 13 11 10 9 10 10 12 14 17 18 20 25 27 28 28 28 27 26 26 26 24 25 25
23 26 28 29 30 30 29 27 25 24 24 22 21 20 19 17 16 13 10 10 10 10 12 14 16 19 22 25 25 23 25 24 25 27 25 25 25 24
24 26 28 29 30 30 29 28 27 25 23 22 21 20 19 17 16 14 13 12 12 11 11 13 14 15 18 22 23 20 21 24 25 24 24 23 23 23
25 26 27 27 27 28 27 26 24 23 22 21 19 19 19 19 19 17 16 15 15 14 13 14 14 16 18 19 18 19 20 20 21 20 20 21 19 15
25 25 26 26 26 26 25 25 25 24 22 21 20 20 20 20 19 18 17 16 16 15 17 15 14 14 16 17 20 20 18 17 17 18 18 20 19 17
24 24 25 24 24 24 25 25 25 24 24 24 23 22 21 21 20 20 18 18 16 16 17 17 15 16 16 18 19 20 17 15 15 16 16 18 18 20
24 24 24 24 24 25 25 26 25 26 25 25 25 24 23 22 20 19 18 17 16 16 15 16 14 13 14 16 17 19 17 18 17 15 15 14 14 9
Wind_Direction
297 282 273 274 256 250 245 251 237 214 213 235 234 250 244 241 251 249 248 245 240 241 238 235 235 234 235 237 237 235 234 234 234 233 231 230 230 229
308 297 280 270 257 246 239 245 236 234 218 219 225 241 243 242 253 242 240 245 238 247 241 238 235 234 234 235 238 237 235 235 234 234 234 233 231 231
313 299 282 268 255 243 236 238 233 231 225 227 235 238 236 236 245 246 242 243 243 244 239 237 233 233 231 234 237 238 237 238 238 233 236 236 234 233
327 316 288 265 257 236 235 236 228 227 231 227 223 209 218 234 236 231 231 237 236 244 232 226 227 226 230 232 235 237 237 239 240 235 235 236 234 234
333 332 324 290 257 234 232 230 228 228 231 230 231 233 234 236 234 232 238 229 229 241 237 233 230 226 235 236 233 233 235 236 240 240 235 236 235 234
332 345 330 349 249 211 203 216 223 223 225 225 227 230 235 235 230 228 229 228 234 239 237 237 235 235 231 237 238 230 233 235 239 241 236 236 236 235
336 342 342 334 360 162 195 191 203 218 224 222 231 230 228 228 227 228 229 231 235 240 241 239 236 233 233 234 237 235 232 233 236 237 235 235 236 237
336 339 341 349 344 1 180 182 189 203 217 226 221 222 228 238 224 230 232 234 241 242 238 239 240 236 235 237 240 243 237 231 233 234 238 237 235 236
345 347 351 352 0 6 355 172 181 203 208 209 216 216 213 211 216 223 222 230 236 235 241 249 249 244 240 241 242 240 239 242 243 233 237 237 237 237
358 357 1 359 4 2 3 359 243 218 195 201 188 190 209 207 205 210 221 228 234 236 238 250 248 233 242 242 250 248 243 246 245 242 239 240 238 240
360 6 1 357 2 2 8 352 324 332 315 262 203 216 221 220 225 226 229 239 241 241 236 252 251 250 250 246 251 253 244 245 242 239 244 239 236 241
2 7 6 356 357 357 358 347 352 295 296 290 237 236 226 229 234 240 239 240 238 248 256 252 253 255 258 258 259 257 244 245 241 241 239 243 245 247
355 357 357 356 358 1 359 4 348 335 331 300 269 235 227 238 239 241 239 240 240 239 239 250 255 258 256 254 262 263 250 248 253 252 249 251 242 246
356 352 350 352 355 357 1 358 359 4 349 344 333 291 252 243 239 241 243 239 242 243 241 241 248 249 251 269 259 258 260 257 262 250 251 250 260 256
2 354 350 353 357 2 10 13 16 16 12 3 3 354 321 281 261 259 251 247 242 242 247 246 247 253 250 250 257 260 263 261 266 260 253 252 263 259
10 13 15 14 16 21 20 21 20 19 16 9 3 353 341 321 300 284 273 263 256 243 242 246 247 250 254 253 252 256 259 259 264 257 267 259 262 260
5 13 20 23 22 23 26 25 23 20 13 11 5 359 355 340 334 316 298 283 275 260 243 241 240 246 248 254 251 253 251 255 260 261 262 263 266 265
9 18 20 20 21 21 19 20 20 18 16 11 5 1 354 347 338 332 320 312 294 273 261 254 250 254 255 252 253 255 256 259 262 259 259 258 259 261
17 20 18 17 16 17 17 16 15 14 11 8 7 7 359 348 345 340 329 315 299 288 274 259 253 257 260 257 257 252 255 256 259 257 257 257 258 256
15 16 15 14 13 13 13 12 12 11 11 8 4 1 355 353 351 344 335 323 310 297 280 273 260 255 257 262 267 263 261 255 253 252 250 246 242 234
9 10 10 9 9 8 8 8 9 8 7 5 2 359 357 354 350 343 335 329 318 305 290 271 269 260 258 255 256 259 255 248 241 239 236 230 221 209
4 5 5 4 3 4 5 4 5 5 4 3 3 0 357 354 349 343 340 333 321 307 293 281 268 257 250 249 251 252 247 236 226 215 211 226 218 201
0 2 1 1 1 1 1 1 2 4 2 0 0 358 355 353 350 347 342 335 328 313 299 286 271 254 246 243 246 245 235 218 212 202 198 205 225 242